SCP
-0 0 0 0 0 0 0 0 0 0 0 0 0 0 0 0 0 0 0 0 0 0 0 0 0 0 0 0 0 0 0 0 0 0 0 0 0 0 0 0 0 0 0
-0 -0 0 -0 0 0 0 0 0 0 0 0 0 0 0 0 0 0 0 0 0 0 0 0 0 0 0 0 0 0 0 0 0 0 0 0 0 0 0 0 0 0 0
-0 0 0 0 0 0 0 0 0 0 0 0 0 0 0 0 0 0 0 0 0 0 0 0 0 0 0 0 0 0 0 0 0 0 0 0 0 0 0 0 0 0 0
-0 0 0 0 0 0 0 0 0 0 0 0 0 0 0 0 0 0 0 0 0 0 0 0 0 0 0 0 0 0 0 0 0 0 0 0 0 0 0 0 0 0 0
-0 -0 0 0 -0 0 0 0 0 0 0 0 0 0 0 0 0 0 0 0 0 0 0 0 0 0 0 0 0 0 0 0 0 0 0 0 0 0 0 0 0 0 0
0 0 0 -0 -0 0 0 0 0 0 0 0 0 0 0 0 0 0 0 0 0 0 -0 0 0 0 0 0 0 -0 0 0 0 0 0 0 0 0 0 0 0 0 0
0 -0 -0 -0 -0 -0 0 0 0 0 0 0 0 0 0 0 0 0 0 0 0 0 0 0 0 0 0 0 -0 0 0 0 0 0 0 0 0 0 0 0 0 0 0
0 -0 -0 -0 -0 -0 0 0 0 0 0 0 0 0 0 0 0 0 0 0 0 0 0 0 0 0 0 0 -0 0 0 0 0 0 0 0 0 0 0 0 0 0 0
0 0 -0 -0 -0 -0 0 0 0 0 0 0 0 0 0 0 0 0 0 0 0 0 0 -0 0 0 0 0 -0 0 0 0 0 0 0 0 0 0 0 0 0 0 0
0 -0 -0 -0 -0 -0 0 0 0 0 0 0 0 0 0 0 0 0 0 0 0 0 0 0 0 0 0 0 0 0 0 0 0 0 0 0 0 0 0 0 0 0 0
0 -0 -0 -0 -0 -0 0 0 0 0 0 0 -0 -0 0 0 -0 -0 0 0 0 0 0 0 0 0 0 0 0 0 0 0 0 0 0 0 0 0 0 0 0 0 0
0 0 -0 -0 -0 -0 -0 0 0 0 -0 -0 -0 -0 -0 -0 -0 -0 -0 0 0 0 0 0 0 -0 -0 0 0 -0 0 0 0 0 0 0 0 0 0 0 0 0 0
0 0 -0 -0 -0 -0 -0 -0 -0 -0 -0 -0 -0 0 -0 0 0 0 -0 -0 -0 -0 -0 -0 -0 -0 -0 0 -0 -0 0 0 0 0 0 0 0 0 0 0 0 0 0
0 0 -0 -0 -0 -0 -0 -0 -0 -0 -0 0 -0 0 0 0 0 -0 0 -0 -0 -0 -0 -0 -0 -0 -0 0 0 0 0 0 0 0 0 0 0 0 0 0 0 0 0
0 0 0 -0 -0 -0 -0 -0 -0 -0 -0 -0 0 0 0 0 0 -0 0 0 0 0 0 0 0 0 0 0 0 0 0 0 0 0 0 0 0 0 0 0 0 0 0
0 0 0 0 0 -0 -0 -0 0 -0 0 0 0 0 0 -0 -0 -0 -0 -0 -0 -0 -0 0 0 0 0 0 0 0 0 0 0 0 0 0 0 0 0 0 0 0 -0
0 0 0 0 0 0 0 0 -0 -0 -0 0 0 0 -0 -0 -0 -0 -0 -0 -0 -0 0 0 0 0 0 0 0 0 0 0 0 -0 0 0 0 0 0 -0 -0 -0 0
0 0 0 0 0 0 0 0 0 -0 -0 0 0 -0 -0 0 -0 -0 -0 -0 0 0 0 0 0 0 0 0 0 0 0 0 0 0 0 0 0 -0 -0 -0 -0 0 0
0 0 0 0 0 0 0 0 0 0 0 -0 -0 0 -0 0 0 -0 -0 0 0 0 0 0 0 0 0 0 0 0 0 0 0 0 0 -0 -0 -0 -0 0 0 0 0
0 0 0 0 0 0 0 0 0 0 0 -0 -0 -0 0 0 0 0 0 0 0 0 0 0 0 0 0 0 0 0 0 -0 -0 -0 -0 -0 0 0 0 0 0 0 0
0 0 0 0 0 0 0 0 0 0 0 0 0 0 0 0 0 0 0 0 0 0 0 0 0 0 0 0 0 -0 -0 -0 -0 -0 0 0 0 0 0 0 0 0 0
0 0 0 0 0 0 0 0 0 0 0 0 0 0 0 0 0 0 0 0 0 0 0 0 0 -0 -0 0 -0 -0 -0 -0 0 0 0 0 0 0 0 0 0 0 0
0 0 0 0 0 0 0 0 0 0 0 0 0 0 0 0 0 0 0 0 0 0 0 -0 -0 0 0 0 -0 0 -0 0 0 0 0 0 0 0 0 0 0 0 0
0 0 0 0 0 0 0 0 0 0 0 0 0 0 0 0 0 0 0 0 0 0 0 0 0 -0 -0 0 0 0 0 0 0 0 0 0 0 0 0 0 0 0 0
0 0 0 0 0 0 0 0 0 0 0 0 0 0 0 0 0 0 0 0 0 0 0 0 0 0 0 0 0 0 0 0 0 0 0 0 0 0 0 0 0 0 0
0 0 0 0 0 0 0 0 0 0 0 0 0 0 0 0 0 0 0 0 0 -0 -0 -0 -0 -0 -0 0 0 0 0 0 0 0 0 0 0 0 0 0 0 0 0
Wind_Speed_500mb
63 66 66 68 67 61 56 49 47 48 50 56 60 64 64 68 70 72 75 73 67 73 77 75 94 95 59 69 70 92 93 79 80 74 61 57 57 58 66 89 100 94 100
67 68 68 70 67 59 54 48 46 50 54 61 64 67 67 70 71 73 76 75 71 70 68 74 67 64 82 77 58 69 93 103 83 72 76 75 64 61 56 89 92 99 123
68 69 69 67 62 59 53 47 49 54 59 60 65 67 70 71 72 70 71 70 68 65 61 67 61 54 54 74 68 59 77 80 83 76 77 69 61 53 61 55 66 85 92
70 68 68 65 60 55 49 46 48 51 56 58 62 70 72 72 68 66 61 62 64 60 54 50 58 57 54 65 68 82 77 81 83 81 73 67 58 54 59 67 71 78 87
72 69 66 61 57 50 48 49 48 50 51 59 70 73 70 65 61 58 51 49 53 54 54 55 57 51 54 53 40 56 45 72 67 73 63 56 52 56 62 72 69 62 79
71 69 64 60 56 49 47 49 47 50 52 58 65 66 65 56 52 44 39 40 40 43 48 48 46 44 56 56 57 64 63 38 61 57 59 61 51 54 60 48 48 60 70
68 67 62 58 56 51 50 45 45 47 49 55 61 59 56 50 44 33 33 33 36 39 37 41 39 43 42 44 40 54 52 34 68 56 52 49 47 41 42 40 40 47 57
64 65 61 55 52 50 47 44 44 45 48 54 55 53 48 42 38 33 25 25 31 29 32 24 41 49 34 34 35 38 40 32 46 40 28 26 35 35 38 35 39 50 51
63 62 59 53 53 50 46 45 43 45 47 51 47 46 47 45 40 31 19 18 22 25 25 31 22 25 33 25 28 38 32 36 49 37 34 34 25 28 30 29 32 43 44
60 58 55 50 50 51 50 47 45 45 47 46 39 36 42 43 33 26 16 18 21 23 21 22 31 23 17 19 29 43 26 45 54 42 34 26 25 25 27 25 22 32 36
54 55 51 48 46 47 48 48 45 41 40 36 30 28 39 30 26 18 7 10 12 13 11 11 15 14 14 25 18 28 25 49 44 35 28 25 22 18 21 20 20 17 26
46 53 48 47 45 44 44 45 38 34 32 28 22 21 29 22 19 9 5 3 7 6 11 14 17 13 21 18 22 24 45 38 36 35 31 28 25 23 23 21 21 25 25
39 47 44 41 41 38 38 42 37 30 26 21 19 17 18 18 19 16 11 10 14 27 32 34 35 34 28 39 47 45 41 39 41 40 39 38 35 38 35 32 31 30 40
35 39 36 34 34 37 35 35 39 36 27 20 16 14 13 14 14 14 15 17 22 28 32 36 39 43 46 48 46 41 41 42 43 47 54 57 54 52 51 49 50 53 51
36 32 31 26 25 31 35 32 31 31 29 23 18 14 13 14 13 9 15 21 26 32 37 41 45 49 54 51 49 47 47 50 59 66 68 66 63 59 53 43 37 35 41
40 33 30 26 22 20 26 28 26 22 25 26 23 22 22 20 11 8 11 15 21 25 35 43 50 54 58 60 61 64 63 64 66 65 62 57 51 47 46 38 35 31 33
43 39 34 30 22 20 19 18 19 18 17 22 23 24 23 21 16 14 15 19 24 29 44 55 59 61 65 66 67 67 67 61 57 52 50 47 44 43 40 40 34 29 31
49 45 40 35 28 21 20 15 13 10 10 14 18 17 19 20 21 23 26 33 45 48 55 60 65 66 67 66 64 60 58 54 50 48 46 43 40 37 36 35 32 26 23
52 51 48 40 36 27 24 21 11 12 8 3 10 12 20 23 23 25 31 38 48 54 56 58 58 57 56 54 53 52 51 50 48 45 44 40 37 32 33 29 24 21 18
52 54 53 48 43 38 31 28 22 16 14 7 5 6 12 19 23 29 30 34 38 43 45 47 48 48 49 50 51 50 49 47 46 43 43 39 37 31 29 27 23 18 15
55 59 58 57 53 47 39 35 31 25 22 17 13 13 15 13 19 24 29 32 35 39 41 42 43 43 43 44 44 45 45 46 43 42 40 37 31 25 22 21 21 21 22
61 62 64 66 60 54 49 42 39 34 30 25 24 22 21 19 23 28 30 32 34 36 38 40 43 42 40 39 40 41 42 42 38 34 32 32 29 27 25 21 18 16 14
64 65 69 72 68 60 56 51 47 42 36 30 29 27 29 29 28 28 32 35 36 37 39 39 42 47 47 42 38 34 33 35 33 29 27 26 22 19 16 13 13 13 14
67 67 72 77 76 70 65 60 54 49 43 38 34 32 32 35 36 36 37 40 42 42 40 39 39 42 45 43 38 32 27 26 26 24 19 18 17 15 15 15 15 18 22
65 72 71 79 82 78 73 68 62 55 49 45 40 38 37 38 39 41 43 44 44 44 44 41 39 38 35 31 30 27 23 21 20 18 16 14 13 15 16 17 19 20 21
64 68 69 78 84 84 80 76 69 63 57 51 48 45 44 45 45 46 46 45 45 45 43 41 38 36 34 30 27 22 19 18 18 18 17 13 14 16 17 16 17 17 19
Wind_Direction_500mb
329 328 327 324 321 315 310 309 311 312 314 312 311 309 304 300 297 293 286 282 274 268 267 266 256 256 255 252 257 248 246 248 251 248 247 249 247 248 249 244 230 250 241
333 332 330 328 325 319 312 310 313 310 313 311 310 310 307 303 300 293 287 282 276 273 265 263 263 257 251 251 250 257 237 237 239 248 250 252 245 244 249 241 229 225 232
333 333 333 330 326 321 315 310 308 310 313 313 311 309 306 303 300 293 287 281 276 273 269 259 256 254 260 242 246 248 240 242 239 247 241 242 239 240 235 233 240 236 226
332 333 333 332 328 324 319 314 314 317 317 316 313 311 309 304 299 295 288 277 270 267 260 256 252 259 257 242 248 248 251 223 230 234 231 231 233 235 238 234 233 234 229
333 333 332 330 325 322 322 317 319 320 319 316 314 316 314 306 299 298 291 279 268 264 262 260 256 252 241 244 235 230 249 215 222 221 224 225 226 228 237 239 233 240 238
333 332 331 329 328 321 315 315 320 320 316 317 319 321 318 310 303 292 279 274 268 263 256 251 247 255 243 251 250 237 251 243 217 210 223 224 224 244 248 241 242 233 236
333 332 334 335 330 327 322 323 322 320 321 318 324 325 323 316 311 291 276 265 263 262 260 255 254 233 233 248 256 254 263 247 223 219 223 229 233 233 250 242 249 249 241
333 336 338 340 333 331 327 325 323 324 322 324 327 328 326 326 327 319 290 269 260 262 258 269 248 239 245 236 241 253 255 219 211 221 222 238 246 228 244 253 255 247 237
334 338 341 342 336 332 328 326 324 323 320 323 328 329 331 328 318 309 285 274 258 251 263 254 245 231 234 229 220 241 246 210 207 205 219 218 218 228 243 250 241 233 224
334 338 342 345 341 338 334 330 322 320 319 320 323 321 328 334 333 318 293 268 257 250 272 251 229 226 194 216 216 228 226 198 198 196 202 198 221 233 238 234 224 227 215
331 335 342 344 343 339 338 335 330 323 319 321 318 323 322 339 341 350 303 272 254 269 270 226 186 195 213 159 181 210 217 190 175 179 189 196 202 212 207 206 205 204 211
326 332 342 346 343 339 341 346 341 330 326 323 323 325 332 1 3 351 14 273 257 249 157 146 158 158 126 165 197 206 176 160 172 169 167 160 150 145 139 139 145 161 174
315 327 340 349 349 348 355 2 3 357 344 339 343 338 354 22 46 30 38 81 109 127 126 125 132 138 142 139 150 157 158 162 159 155 146 130 128 124 121 127 131 149 150
300 316 333 354 357 360 0 5 17 16 6 5 1 3 16 32 59 70 84 109 122 112 114 121 128 134 136 133 136 141 143 142 142 136 129 127 126 127 128 126 124 129 135
290 296 313 334 358 357 5 2 18 26 19 21 24 36 50 62 59 92 111 119 119 120 125 125 127 127 126 127 127 127 128 131 129 128 128 130 132 131 121 117 120 137 131
285 275 290 304 324 343 359 4 8 24 45 44 44 51 60 62 61 96 126 129 128 131 132 129 127 126 126 125 124 125 128 130 130 132 132 130 128 128 124 126 131 131 121
274 270 267 279 292 307 328 345 358 10 33 66 54 50 55 66 78 91 112 126 126 137 126 124 123 123 122 123 125 127 127 127 128 129 131 128 125 122 125 129 130 123 116
264 264 249 262 267 277 293 305 322 349 10 53 74 73 63 64 77 97 108 120 125 122 120 122 122 123 124 125 126 128 130 130 128 124 124 123 123 124 130 129 122 112 108
262 255 247 246 253 254 260 269 271 289 291 48 69 82 94 92 98 107 118 123 123 124 125 126 127 128 130 131 130 128 127 127 127 126 123 123 124 130 127 121 120 114 97
262 248 245 238 243 245 242 244 240 241 250 238 162 139 127 123 127 127 132 129 129 127 129 129 129 130 131 132 130 129 129 128 128 128 126 126 127 130 121 109 99 97 106
262 246 240 233 233 237 237 235 231 224 233 226 203 177 153 156 153 148 144 140 137 134 134 133 131 131 130 130 129 129 128 128 129 128 127 121 113 116 121 123 110 92 73
255 245 236 235 229 230 230 227 228 222 222 220 213 196 175 175 172 162 154 148 143 141 139 136 131 127 126 127 129 131 129 126 125 127 131 132 125 110 99 92 85 81 81
249 243 235 232 228 226 226 223 223 220 220 215 213 201 186 180 184 174 162 154 147 143 140 141 140 136 132 131 129 127 125 124 123 119 113 109 106 101 100 108 116 119 115
245 243 236 229 225 221 222 221 220 218 217 215 211 201 192 184 182 175 168 161 153 149 147 148 147 143 138 135 132 130 126 121 120 118 110 106 110 121 135 140 126 108 106
238 239 236 228 224 220 219 220 218 217 214 213 209 205 198 192 184 175 170 164 159 154 151 151 148 144 141 138 136 136 136 132 126 121 123 127 130 132 131 121 109 112 124
238 238 235 229 224 221 219 219 217 216 214 212 207 205 200 195 188 182 175 170 165 160 157 156 156 153 150 147 146 146 144 140 139 140 139 126 117 121 122 124 122 128 141
Wind_Speed_850mb
63 66 66 68 67 61 56 49 47 48 50 56 60 64 64 68 70 72 75 73 67 73 77 75 94 95 59 69 70 92 93 79 80 74 61 57 57 58 66 89 100 94 100
67 68 68 70 67 59 54 48 46 50 54 61 64 67 67 70 71 73 76 75 71 70 68 74 67 64 82 77 58 69 93 103 83 72 76 75 64 61 56 89 92 99 123
68 69 69 67 62 59 53 47 49 54 59 60 65 67 70 71 72 70 71 70 68 65 61 67 61 54 54 74 68 59 77 80 83 76 77 69 61 53 61 55 66 85 92
70 68 68 65 60 55 49 46 48 51 56 58 62 70 72 72 68 66 61 62 64 60 54 50 58 57 54 65 68 82 77 81 83 81 73 67 58 54 59 67 71 78 87
72 69 66 61 57 50 48 49 48 50 51 59 70 73 70 65 61 58 51 49 53 54 54 55 57 51 54 53 40 56 45 72 67 73 63 56 52 56 62 72 69 62 79
71 69 64 60 56 49 47 49 47 50 52 58 65 66 65 56 52 44 39 40 40 43 48 48 46 44 56 56 57 64 63 38 61 57 59 61 51 54 60 48 48 60 70
68 67 62 58 56 51 50 45 45 47 49 55 61 59 56 50 44 33 33 33 36 39 37 41 39 43 42 44 40 54 52 34 68 56 52 49 47 41 42 40 40 47 57
64 65 61 55 52 50 47 44 44 45 48 54 55 53 48 42 38 33 25 25 31 29 32 24 41 49 34 34 35 38 40 32 46 40 28 26 35 35 38 35 39 50 51
63 62 59 53 53 50 46 45 43 45 47 51 47 46 47 45 40 31 19 18 22 25 25 31 22 25 33 25 28 38 32 36 49 37 34 34 25 28 30 29 32 43 44
60 58 55 50 50 51 50 47 45 45 47 46 39 36 42 43 33 26 16 18 21 23 21 22 31 23 17 19 29 43 26 45 54 42 34 26 25 25 27 25 22 32 36
54 55 51 48 46 47 48 48 45 41 40 36 30 28 39 30 26 18 7 10 12 13 11 11 15 14 14 25 18 28 25 49 44 35 28 25 22 18 21 20 20 17 26
46 53 48 47 45 44 44 45 38 34 32 28 22 21 29 22 19 9 5 3 7 6 11 14 17 13 21 18 22 24 45 38 36 35 31 28 25 23 23 21 21 25 25
39 47 44 41 41 38 38 42 37 30 26 21 19 17 18 18 19 16 11 10 14 27 32 34 35 34 28 39 47 45 41 39 41 40 39 38 35 38 35 32 31 30 40
35 39 36 34 34 37 35 35 39 36 27 20 16 14 13 14 14 14 15 17 22 28 32 36 39 43 46 48 46 41 41 42 43 47 54 57 54 52 51 49 50 53 51
36 32 31 26 25 31 35 32 31 31 29 23 18 14 13 14 13 9 15 21 26 32 37 41 45 49 54 51 49 47 47 50 59 66 68 66 63 59 53 43 37 35 41
40 33 30 26 22 20 26 28 26 22 25 26 23 22 22 20 11 8 11 15 21 25 35 43 50 54 58 60 61 64 63 64 66 65 62 57 51 47 46 38 35 31 33
43 39 34 30 22 20 19 18 19 18 17 22 23 24 23 21 16 14 15 19 24 29 44 55 59 61 65 66 67 67 67 61 57 52 50 47 44 43 40 40 34 29 31
49 45 40 35 28 21 20 15 13 10 10 14 18 17 19 20 21 23 26 33 45 48 55 60 65 66 67 66 64 60 58 54 50 48 46 43 40 37 36 35 32 26 23
52 51 48 40 36 27 24 21 11 12 8 3 10 12 20 23 23 25 31 38 48 54 56 58 58 57 56 54 53 52 51 50 48 45 44 40 37 32 33 29 24 21 18
52 54 53 48 43 38 31 28 22 16 14 7 5 6 12 19 23 29 30 34 38 43 45 47 48 48 49 50 51 50 49 47 46 43 43 39 37 31 29 27 23 18 15
55 59 58 57 53 47 39 35 31 25 22 17 13 13 15 13 19 24 29 32 35 39 41 42 43 43 43 44 44 45 45 46 43 42 40 37 31 25 22 21 21 21 22
61 62 64 66 60 54 49 42 39 34 30 25 24 22 21 19 23 28 30 32 34 36 38 40 43 42 40 39 40 41 42 42 38 34 32 32 29 27 25 21 18 16 14
64 65 69 72 68 60 56 51 47 42 36 30 29 27 29 29 28 28 32 35 36 37 39 39 42 47 47 42 38 34 33 35 33 29 27 26 22 19 16 13 13 13 14
67 67 72 77 76 70 65 60 54 49 43 38 34 32 32 35 36 36 37 40 42 42 40 39 39 42 45 43 38 32 27 26 26 24 19 18 17 15 15 15 15 18 22
65 72 71 79 82 78 73 68 62 55 49 45 40 38 37 38 39 41 43 44 44 44 44 41 39 38 35 31 30 27 23 21 20 18 16 14 13 15 16 17 19 20 21
64 68 69 78 84 84 80 76 69 63 57 51 48 45 44 45 45 46 46 45 45 45 43 41 38 36 34 30 27 22 19 18 18 18 17 13 14 16 17 16 17 17 19
Wind_Direction_850mb
329 328 327 324 321 315 310 309 311 312 314 312 311 309 304 300 297 293 286 282 274 268 267 266 256 256 255 252 257 248 246 248 251 248 247 249 247 248 249 244 230 250 241
333 332 330 328 325 319 312 310 313 310 313 311 310 310 307 303 300 293 287 282 276 273 265 263 263 257 251 251 250 257 237 237 239 248 250 252 245 244 249 241 229 225 232
333 333 333 330 326 321 315 310 308 310 313 313 311 309 306 303 300 293 287 281 276 273 269 259 256 254 260 242 246 248 240 242 239 247 241 242 239 240 235 233 240 236 226
332 333 333 332 328 324 319 314 314 317 317 316 313 311 309 304 299 295 288 277 270 267 260 256 252 259 257 242 248 248 251 223 230 234 231 231 233 235 238 234 233 234 229
333 333 332 330 325 322 322 317 319 320 319 316 314 316 314 306 299 298 291 279 268 264 262 260 256 252 241 244 235 230 249 215 222 221 224 225 226 228 237 239 233 240 238
333 332 331 329 328 321 315 315 320 320 316 317 319 321 318 310 303 292 279 274 268 263 256 251 247 255 243 251 250 237 251 243 217 210 223 224 224 244 248 241 242 233 236
333 332 334 335 330 327 322 323 322 320 321 318 324 325 323 316 311 291 276 265 263 262 260 255 254 233 233 248 256 254 263 247 223 219 223 229 233 233 250 242 249 249 241
333 336 338 340 333 331 327 325 323 324 322 324 327 328 326 326 327 319 290 269 260 262 258 269 248 239 245 236 241 253 255 219 211 221 222 238 246 228 244 253 255 247 237
334 338 341 342 336 332 328 326 324 323 320 323 328 329 331 328 318 309 285 274 258 251 263 254 245 231 234 229 220 241 246 210 207 205 219 218 218 228 243 250 241 233 224
334 338 342 345 341 338 334 330 322 320 319 320 323 321 328 334 333 318 293 268 257 250 272 251 229 226 194 216 216 228 226 198 198 196 202 198 221 233 238 234 224 227 215
331 335 342 344 343 339 338 335 330 323 319 321 318 323 322 339 341 350 303 272 254 269 270 226 186 195 213 159 181 210 217 190 175 179 189 196 202 212 207 206 205 204 211
326 332 342 346 343 339 341 346 341 330 326 323 323 325 332 1 3 351 14 273 257 249 157 146 158 158 126 165 197 206 176 160 172 169 167 160 150 145 139 139 145 161 174
315 327 340 349 349 348 355 2 3 357 344 339 343 338 354 22 46 30 38 81 109 127 126 125 132 138 142 139 150 157 158 162 159 155 146 130 128 124 121 127 131 149 150
300 316 333 354 357 360 0 5 17 16 6 5 1 3 16 32 59 70 84 109 122 112 114 121 128 134 136 133 136 141 143 142 142 136 129 127 126 127 128 126 124 129 135
290 296 313 334 358 357 5 2 18 26 19 21 24 36 50 62 59 92 111 119 119 120 125 125 127 127 126 127 127 127 128 131 129 128 128 130 132 131 121 117 120 137 131
285 275 290 304 324 343 359 4 8 24 45 44 44 51 60 62 61 96 126 129 128 131 132 129 127 126 126 125 124 125 128 130 130 132 132 130 128 128 124 126 131 131 121
274 270 267 279 292 307 328 345 358 10 33 66 54 50 55 66 78 91 112 126 126 137 126 124 123 123 122 123 125 127 127 127 128 129 131 128 125 122 125 129 130 123 116
264 264 249 262 267 277 293 305 322 349 10 53 74 73 63 64 77 97 108 120 125 122 120 122 122 123 124 125 126 128 130 130 128 124 124 123 123 124 130 129 122 112 108
262 255 247 246 253 254 260 269 271 289 291 48 69 82 94 92 98 107 118 123 123 124 125 126 127 128 130 131 130 128 127 127 127 126 123 123 124 130 127 121 120 114 97
262 248 245 238 243 245 242 244 240 241 250 238 162 139 127 123 127 127 132 129 129 127 129 129 129 130 131 132 130 129 129 128 128 128 126 126 127 130 121 109 99 97 106
262 246 240 233 233 237 237 235 231 224 233 226 203 177 153 156 153 148 144 140 137 134 134 133 131 131 130 130 129 129 128 128 129 128 127 121 113 116 121 123 110 92 73
255 245 236 235 229 230 230 227 228 222 222 220 213 196 175 175 172 162 154 148 143 141 139 136 131 127 126 127 129 131 129 126 125 127 131 132 125 110 99 92 85 81 81
249 243 235 232 228 226 226 223 223 220 220 215 213 201 186 180 184 174 162 154 147 143 140 141 140 136 132 131 129 127 125 124 123 119 113 109 106 101 100 108 116 119 115
245 243 236 229 225 221 222 221 220 218 217 215 211 201 192 184 182 175 168 161 153 149 147 148 147 143 138 135 132 130 126 121 120 118 110 106 110 121 135 140 126 108 106
238 239 236 228 224 220 219 220 218 217 214 213 209 205 198 192 184 175 170 164 159 154 151 151 148 144 141 138 136 136 136 132 126 121 123 127 130 132 131 121 109 112 124
238 238 235 229 224 221 219 219 217 216 214 212 207 205 200 195 188 182 175 170 165 160 157 156 156 153 150 147 146 146 144 140 139 140 139 126 117 121 122 124 122 128 141